Weather reports worldwide

Advertisment
Tulloch Bridge, United Kingdom (3047): temperature & dewpoint: 16.07.2019 01:00:00 - 22.07.2019 01:00:00 (BST)Tulloch Bridge, United Kingdom (3047): temperature -20cm & temperature -100cm: 16.07.2019 01:00:00 - 22.07.2019 01:00:00 (BST)Tulloch Bridge, United Kingdom (3047): wind speed & gusts: 16.07.2019 01:00:00 - 22.07.2019 01:00:00 (BST)Tulloch Bridge, United Kingdom (3047): wind direction: 16.07.2019 01:00:00 - 22.07.2019 01:00:00 (BST)Tulloch Bridge, United Kingdom (3047): reduced air pressure: 16.07.2019 01:00:00 - 22.07.2019 01:00:00 (BST)Tulloch Bridge, United Kingdom (3047): visibility: 16.07.2019 01:00:00 - 22.07.2019 01:00:00 (BST)Tulloch Bridge, United Kingdom (3047): precipitation: 16.07.2019 01:00:00 - 22.07.2019 01:00:00 (BST)
Date & Time tt [°C] td [°C] tt -20cm [°C] tt -100cm [°C] ff [km/h] ff [kn] fx [km/h] fx [kn] dd ppp [hPa] vv [km] rr [mm]
22.07.2019 01:00:00 - - - - - - - - - - - 1,8
22.07.2019 00:00:00 14,9 14,2 - - 11 6 - - SSE 1006,7 12 0,8
21.07.2019 23:00:00 15,3 14,2 - - 15 8 - - S 1007,0 30 1,2
21.07.2019 22:00:00 15,4 14,3 - - 22 12 - - S 1007,4 12 3,4
21.07.2019 21:00:00 15,6 14,2 - - 11 6 - - S 1007,4 16 1,2
21.07.2019 20:00:00 15,1 14,0 - - 22 12 - - S 1008,4 4,1 2,0
21.07.2019 19:00:00 15,1 13,2 - - 18 10 - - S 1008,4 50 0,2
21.07.2019 18:00:00 14,3 12,9 - - 16 9 48 26 S 1009,2 15 0,2
21.07.2019 17:00:00 13,8 12,2 - - 34 18 50 27 S 1009,2 10 0,6
21.07.2019 16:00:00 15,3 11,4 - - 16 9 - - S 1011,3 35 0,0
21.07.2019 15:00:00 15,9 11,1 - - 18 10 - - SSW 1011,9 35 0,0
21.07.2019 14:00:00 15,3 10,8 - - 16 9 - - S 1012,4 50 0,0
21.07.2019 13:00:00 15,5 11,4 - - 18 10 - - S 1012,6 26 0,0
21.07.2019 12:00:00 15,3 12,8 - - 15 8 - - S 1012,7 25 0,0
21.07.2019 11:00:00 13,7 12,4 - - 15 8 - - S 1012,9 10 0,0
21.07.2019 10:00:00 15,2 11,4 16,2 14,7 21 11 - - S 1012,3 30 0,0
21.07.2019 09:00:00 14,7 11,7 - - 15 8 - - S 1012,2 50 0,0
21.07.2019 08:00:00 13,0 11,1 - - 11 6 - - WSW 1012,1 50 0,0
21.07.2019 07:00:00 13,0 10,5 - - 11 6 - - SW 1011,8 50 0,0
21.07.2019 06:00:00 12,9 10,7 - - 9 5 - - SW 1011,5 50 0,2
21.07.2019 05:00:00 12,9 10,9 - - 11 6 - - SSW 1011,0 30 0,0
21.07.2019 04:00:00 11,9 10,6 - - 9 5 - - WSW 1011,3 45 0,0
21.07.2019 03:00:00 12,9 10,8 - - 11 6 - - WSW 1010,8 50 0,0
21.07.2019 02:00:00 12,3 11,1 - - 8 4 - - W 1010,8 30 0,0
21.07.2019 01:00:00 12,8 10,2 - - 11 6 - - WSW 1010,6 50 0,0
21.07.2019 00:00:00 12,5 9,6 - - 4 2 - - W 1010,4 45 0,0
20.07.2019 23:00:00 13,0 9,0 - - 9 5 - - SSW 1010,2 50 0,0
20.07.2019 22:00:00 11,7 8,5 - - 4 2 - - SW 1010,0 50 0,0
20.07.2019 21:00:00 13,4 9,3 - - 9 5 - - NW 1009,0 50 0,0
20.07.2019 20:00:00 14,6 9,6 - - 15 8 - - WNW 1008,1 50 0,0
20.07.2019 19:00:00 15,6 10,0 - - 18 10 - - W 1007,3 50 0,0
20.07.2019 18:00:00 15,4 9,7 - - 16 9 - - WNW 1006,5 35 0,0
20.07.2019 17:00:00 15,8 9,2 - - 11 6 - - WNW 1005,9 50 0,0
20.07.2019 16:00:00 15,0 10,6 - - 8 4 - - W 1005,4 45 0,0
20.07.2019 15:00:00 14,9 10,7 - - 13 7 - - WNW 1004,6 45 0,0
20.07.2019 14:00:00 14,5 10,5 - - 15 8 - - W 1003,9 40 0,0
20.07.2019 13:00:00 14,7 11,4 - - 15 8 - - W 1003,0 50 0,0
20.07.2019 12:00:00 14,5 12,5 - - 13 7 - - W 1002,4 45 0,0
20.07.2019 11:00:00 14,6 12,4 - - 15 8 - - W 1001,6 50 0,0
20.07.2019 10:00:00 13,7 12,6 16,7 14,7 11 6 - - NNW 1001,1 45 0,0
20.07.2019 09:00:00 13,6 12,6 - - 13 7 - - WNW 1000,7 30 0,0
20.07.2019 08:00:00 13,0 12,6 - - 9 5 - - WNW 1000,3 35 0,0
20.07.2019 07:00:00 12,9 12,7 - - 9 5 - - W 1000,0 19 0,0
20.07.2019 06:00:00 12,7 12,6 - - 5 3 - - NNW 999,8 14 0,0
20.07.2019 05:00:00 12,6 12,6 - - 8 4 - - NW 999,7 9 0,0
20.07.2019 04:00:00 12,7 12,6 - - 5 3 - - NNW 999,8 22 0,4
20.07.2019 03:00:00 12,8 12,6 - - 5 3 - - E 999,9 6 2,8
20.07.2019 02:00:00 12,6 12,4 - - 2 1 - - ENE 1000,5 7 0,4
20.07.2019 01:00:00 12,7 12,5 - - 4 2 - - S 1000,8 7 0,4
20.07.2019 00:00:00 13,0 12,5 - - 2 1 - - E 1001,2 11 1,8
19.07.2019 23:00:00 13,4 12,7 - - 2 1 - - NE 1001,7 14 0,6
19.07.2019 22:00:00 14,8 11,9 - - 5 3 - - SSE 1001,9 50 0,0
19.07.2019 21:00:00 15,0 12,0 - - 8 4 - - SSE 1001,9 14 0,0
19.07.2019 20:00:00 15,9 11,3 - - 5 3 - - S 1002,0 50 0,0
19.07.2019 19:00:00 16,5 12,1 - - 5 3 - - N 1002,4 45 0,0
19.07.2019 18:00:00 17,0 11,5 - - 11 6 - - NW 1002,4 45 0,0
19.07.2019 17:00:00 18,3 9,3 - - 9 5 - - SSW 1002,9 45 0,0
19.07.2019 16:00:00 18,6 9,7 - - 11 6 - - S 1003,4 50 0,0
19.07.2019 15:00:00 18,0 10,2 - - 5 3 - - W 1004,0 45 0,0
19.07.2019 14:00:00 18,6 10,0 - - 13 7 - - S 1004,2 40 0,0
19.07.2019 13:00:00 17,2 10,6 - - 8 4 - - ESE 1004,6 29 0,0
19.07.2019 12:00:00 14,6 11,4 - - 13 7 - - S 1005,2 27 0,2
19.07.2019 11:00:00 13,3 12,2 - - 16 9 - - S 1005,7 9 0,4
19.07.2019 10:00:00 12,7 11,8 16,0 14,7 15 8 - - S 1005,6 8 0,8
19.07.2019 09:00:00 12,7 11,8 - - 13 7 - - S 1005,6 4,1 0,6
19.07.2019 08:00:00 12,1 11,4 - - 8 4 - - SSW 1005,8 3,2 0,8
19.07.2019 07:00:00 12,3 11,5 - - 5 3 - - W 1005,5 45 0,0
19.07.2019 06:00:00 11,4 10,6 - - 9 5 - - W 1005,6 45 0,6
19.07.2019 05:00:00 12,0 11,1 - - 11 6 - - WSW 1005,3 13 0,2
19.07.2019 04:00:00 12,0 11,0 - - 13 7 - - SW 1005,3 14 0,4
19.07.2019 03:00:00 12,0 11,0 - - 9 5 - - S 1005,5 30 0,0
19.07.2019 02:00:00 12,2 10,7 - - 13 7 - - SSW 1005,5 50 0,0
19.07.2019 01:00:00 11,9 11,1 - - 15 8 - - SSW 1005,7 30 0,2
19.07.2019 00:00:00 11,7 10,7 - - 11 6 - - SSW 1005,9 12 0,2
18.07.2019 23:00:00 12,3 10,1 - - 9 5 - - SW 1005,7 24 0,0
18.07.2019 22:00:00 12,0 10,6 - - 13 7 - - SW 1005,8 30 0,4
18.07.2019 21:00:00 12,1 10,8 - - 13 7 - - SSW 1005,5 5 0,4
18.07.2019 20:00:00 12,3 11,4 - - 8 4 - - WNW 1005,1 20 0,8
18.07.2019 19:00:00 12,3 12,0 - - 2 1 - - WNW 1004,6 17 3,0
18.07.2019 18:00:00 12,5 11,8 - - 9 5 - - WNW 1004,5 5 1,4
18.07.2019 17:00:00 13,6 11,8 - - 4 2 - - WNW 1003,9 20 1,0
18.07.2019 16:00:00 13,0 12,3 - - 15 8 - - NNW 1003,6 30 4,0
18.07.2019 15:00:00 13,1 11,4 - - 16 9 - - SSW 1003,7 8 1,0
18.07.2019 14:00:00 14,2 10,7 - - 16 9 - - SSW 1003,3 35 0,0
18.07.2019 13:00:00 14,4 11,4 - - 11 6 - - SW 1003,1 40 0,2
18.07.2019 12:00:00 14,1 12,9 - - 15 8 - - SSW 1003,2 35 0,8
18.07.2019 11:00:00 12,8 11,2 - - 18 10 - - SSW 1003,3 10 0,8
18.07.2019 10:00:00 13,1 11,6 16,2 14,7 8 4 - - SW 1003,2 50 0,2
18.07.2019 09:00:00 13,1 11,1 - - 11 6 - - SW 1003,2 8 0,6
18.07.2019 08:00:00 12,7 10,5 - - 15 8 - - SSW 1003,1 40 0,0
18.07.2019 07:00:00 11,1 11,0 - - 8 4 - - W 1003,2 35 0,0
18.07.2019 06:00:00 10,0 10,0 - - 2 1 - - NNE 1003,7 7 0,4
18.07.2019 05:00:00 9,7 9,7 - - 2 1 - - SSE 1003,9 6 0,0
18.07.2019 04:00:00 9,7 9,7 - - 5 3 - - NW 1004,1 8 0,2
18.07.2019 03:00:00 8,4 8,4 - - 4 2 - - ENE 1004,6 9 0,0
18.07.2019 02:00:00 6,8 6,8 - - 5 3 - - S 1005,2 2,0 0,0
18.07.2019 01:00:00 8,2 7,8 - - 2 1 - - ESE 1005,2 0,2 0,0
18.07.2019 00:00:00 10,6 9,6 - - 5 3 - - SW 1005,0 30 0,0
17.07.2019 23:00:00 11,8 10,7 - - 15 8 - - WNW 1005,1 35 0,0
17.07.2019 22:00:00 11,9 11,2 - - 16 9 - - W 1004,8 16 2,6
17.07.2019 21:00:00 14,1 13,6 - - 8 4 - - WNW 1004,3 3,3 0,8
17.07.2019 20:00:00 14,1 13,7 - - 11 6 - - S 1004,2 5 0,4
17.07.2019 19:00:00 14,3 13,4 - - 15 8 - - S 1004,5 4,1 0,8
17.07.2019 18:00:00 14,6 13,5 - - 21 11 - - S 1004,6 3,5 0,4
17.07.2019 17:00:00 15,4 13,3 - - 22 12 - - S 1004,9 7 0,4
17.07.2019 16:00:00 14,6 12,4 - - 22 12 - - SSE 1005,7 11 0,0
17.07.2019 15:00:00 15,0 12,1 - - 22 12 52 28 S 1006,1 19 0,0
17.07.2019 14:00:00 15,5 11,5 - - 24 13 - - S 1006,1 50 0,0
17.07.2019 13:00:00 15,4 11,8 - - 22 12 - - S 1007,2 45 0,0
17.07.2019 12:00:00 15,5 12,5 - - 15 8 - - S 1007,9 40 0,6
17.07.2019 11:00:00 14,4 12,4 - - 13 7 - - SSW 1008,3 29 0,6
17.07.2019 10:00:00 14,2 11,8 16,7 14,7 5 3 - - WSW 1009,0 13 0,4
17.07.2019 09:00:00 15,7 11,1 - - 11 6 - - S 1009,2 45 0,0
17.07.2019 08:00:00 15,7 11,1 - - 13 7 - - S 1009,6 35 0,0
17.07.2019 07:00:00 15,7 10,8 - - 16 9 - - S 1009,7 40 0,0
17.07.2019 06:00:00 15,4 12,1 - - 11 6 - - SSW 1010,4 40 0,0
17.07.2019 05:00:00 15,0 12,4 - - 5 3 - - SSW 1011,0 45 0,0
17.07.2019 04:00:00 12,8 12,2 - - 2 1 - - S 1012,1 30 0,0
17.07.2019 03:00:00 12,9 11,5 - - 2 1 - - WNW 1012,8 30 0,0
17.07.2019 02:00:00 13,4 11,7 - - 4 2 - - SSE 1013,5 40 0,0
17.07.2019 01:00:00 12,7 11,4 - - 2 1 - - NNW 1014,2 35 0,0
17.07.2019 00:00:00 13,0 11,5 - - 4 2 - - NW 1014,8 30 0,0
16.07.2019 23:00:00 14,0 11,3 - - 8 4 - - NW 1015,0 45 0,0
16.07.2019 22:00:00 15,1 11,1 - - 4 2 - - SW 1015,3 50 0,0
16.07.2019 21:00:00 15,0 11,0 - - 2 1 - - S 1015,4 50 0,0
16.07.2019 20:00:00 18,5 10,8 - - 4 2 - - S 1015,3 50 0,0
16.07.2019 19:00:00 17,9 9,0 - - 13 7 - - SSW 1015,5 40 0,0
16.07.2019 18:00:00 19,4 8,9 - - 16 9 - - SSW 1015,4 50 0,0
16.07.2019 17:00:00 19,9 10,3 - - 16 9 - - SSW 1015,7 40 0,0
16.07.2019 16:00:00 18,7 10,5 - - 13 7 - - SW 1016,2 40 0,0
16.07.2019 15:00:00 18,8 13,8 - - 13 7 - - NW 1016,3 30 0,0
16.07.2019 14:00:00 18,6 13,1 - - 8 4 - - WNW 1016,4 35 0,0
16.07.2019 13:00:00 15,7 13,2 - - 18 10 - - WNW 1017,2 26 0,0
16.07.2019 12:00:00 16,2 12,9 - - 16 9 - - WNW 1017,0 29 0,0
16.07.2019 11:00:00 16,1 12,4 - - 13 7 - - NW 1017,2 35 0,0
16.07.2019 10:00:00 15,2 12,3 16,7 14,4 8 4 - - NNW 1017,5 35 -
16.07.2019 09:00:00 14,3 12,7 - - 5 3 - - NNW 1017,9 40 0,0
16.07.2019 08:00:00 13,9 12,5 - - 5 3 - - SSE 1017,8 35 0,0
16.07.2019 07:00:00 10,6 10,4 - - 4 2 - - SSW 1018,5 8 0,0
16.07.2019 06:00:00 10,2 10,0 - - 2 1 - - E 1018,6 8 0,0
16.07.2019 05:00:00 11,0 10,6 - - 4 2 - - SSE 1018,6 12 0,0
16.07.2019 04:00:00 10,8 10,7 - - 4 2 - - E 1018,8 11 0,0
16.07.2019 03:00:00 8,9 8,8 - - 2 1 - - S 1019,5 0,3 0,0
16.07.2019 02:00:00 9,8 9,6 - - 2 1 - - SE 1019,7 6 0,0
16.07.2019 01:00:00 9,9 9,4 - - 4 2 - - SSW 1019,8 1,1 0,0

tt = temperature
td = dewpoint
tt -20cm = temperature -20cm
tt -100cm = temperature -100cm
ff = wind speed
fx = gusts
dd = wind direction
ppp = reduced air pressure
vv = visibility
rr = precipitation

Next stations